This is the latest recevied weather packets stored in our database for station/object KC3UTO. If no packets are shown the sender has not sent any weather packets the latest 10 day(s).
| Time | Temp. | Humidity | Pressure | Rain* | Wind** | Luminosity | Snow |
|---|---|---|---|---|---|---|---|
| 1777618622 | 5.56° C | 93% | 1012.2 hPa | 0 mm | - | 0 W/m² | - |
| 1777618317 | 5.56° C | 93% | 1011.9 hPa | 0 mm | - | 0 W/m² | - |
| 1777618015 | 5.56° C | 92% | 1011.8 hPa | 0 mm | - | 0 W/m² | - |
| 1777617710 | 5.56° C | 92% | 1012 hPa | 0 mm | - | 0 W/m² | - |
| 1777617411 | 6.11° C | 92% | 1011.9 hPa | 0 mm | - | 0 W/m² | - |
| 1777617110 | 6.11° C | 92% | 1012.1 hPa | 0 mm | - | 0 W/m² | - |
| 1777616804 | 6.11° C | 91% | 1012 hPa | 0 mm | - | 0 W/m² | - |
| 1777616500 | 6.11° C | 91% | 1012 hPa | 0 mm | - | 0 W/m² | - |
| 1777616196 | 6.67° C | 91% | 1011.9 hPa | 0 mm | - | 0 W/m² | - |
| 1777615893 | 6.67° C | 90% | 1012.1 hPa | 0 mm | - | 0 W/m² | - |
| 1777615590 | 6.67° C | 90% | 1012 hPa | 0 mm | - | 0 W/m² | - |
| 1777615287 | 6.67° C | 89% | 1012.2 hPa | 0 mm | - | 0 W/m² | - |
| 1777614985 | 7.22° C | 89% | 1011.9 hPa | 0 mm | - | 0 W/m² | - |
| 1777614682 | 7.22° C | 88% | 1011.7 hPa | 0 mm | - | 0 W/m² | - |
| 1777614377 | 7.78° C | 88% | 1011.8 hPa | 0 mm | - | 0 W/m² | - |
| 1777614073 | 7.78° C | 87% | 1011.9 hPa | 0 mm | - | 0 W/m² | - |
| 1777613769 | 7.78° C | 86% | 1011.7 hPa | 0 mm | - | 0 W/m² | - |
| 1777613467 | 8.33° C | 85% | 1011.9 hPa | 0 mm | - | 0 W/m² | - |
| 1777613162 | 8.33° C | 84% | 1011.8 hPa | 0 mm | - | 0 W/m² | - |
| 1777612859 | 8.89° C | 84% | 1011.6 hPa | 0 mm | - | 0 W/m² | - |
| 1777612555 | 8.89° C | 83% | 1011.7 hPa | 0 mm | - | 0 W/m² | - |
| 1777612250 | 8.89° C | 83% | 1011.6 hPa | 0 mm | - | 0 W/m² | - |
| 1777611945 | 8.89° C | 83% | 1011.6 hPa | 0 mm | - | 0 W/m² | - |
| 1777611642 | 9.44° C | 83% | 1011.7 hPa | 0 mm | - | 0 W/m² | - |
| 1777611338 | 9.44° C | 83% | 1011.7 hPa | 0 mm | - | 0 W/m² | - |
* Rain latest hour (hover to see other rain measurements)
** Current wind speed in m/s (hover to see current wind gust speed)